Powrót do katalogu

ARIANE 2 DEB

AktywnyGTO
NORAD 27042·DEBRIS·🇫🇷 France

Wystrzelony Jan 27, 1989 z Guiana Space Centre

Loading…

TLE

ŚwieżeSource: Space-Track

Epoka: Sep 14, 2026, 14:02 UTC

1 27042U 89006X   26257.58515439 -.00000162  00000-0  56570-3 0  9996
2 27042   7.8672 229.7867 7110676 137.5972 325.1918  2.25327817103527

Śledź ARIANE 2 DEB w czasie rzeczywistym z AllMySat

Download on the App Store